Theta_e
294 290 289 292 295 297 298 297 296 300 304 303 301 302 305 309 308 309 311 311 311 312 315 316 319 322 327 331 336 335 338 339 342 340 334 330 329 329 328 331 332 334 334 334
293 287 294 298 297 296 295 293 294 300 304 302 301 301 306 308 308 310 311 310 312 311 315 317 319 326 327 330 332 333 338 338 337 336 332 331 330 328 329 330 332 331 331 332
290 293 297 297 296 294 294 293 293 294 300 301 299 296 300 305 309 311 312 312 312 312 312 313 324 325 327 330 330 332 336 336 335 333 332 332 331 330 327 328 329 330 332 333
288 295 296 294 293 296 290 298 297 297 295 290 297 288 297 302 304 308 310 309 311 312 314 313 324 325 327 329 331 334 335 334 334 331 330 327 325 321 324 326 328 331 332 331
287 290 290 292 293 297 294 299 297 297 294 292 293 289 296 301 301 304 308 310 311 312 311 312 324 328 329 330 330 333 333 332 333 331 331 329 327 327 326 327 327 329 330 329
290 295 292 291 295 298 299 297 296 295 292 286 291 291 293 296 300 302 307 308 310 309 312 324 327 329 329 331 332 332 331 331 332 332 331 327 325 326 325 325 325 326 326 328
291 291 295 295 290 293 294 290 283 283 284 284 293 291 295 299 303 306 306 308 309 310 317 324 325 326 328 329 331 331 330 330 330 331 329 327 327 326 325 324 324 325 325 325
285 284 294 298 291 288 289 290 284 279 281 285 293 289 293 303 307 308 309 308 309 309 322 324 325 326 328 330 330 329 330 329 330 328 328 327 329 326 326 326 326 326 326 326
285 285 295 294 295 293 288 286 293 287 290 286 289 294 299 302 303 306 307 308 316 318 322 323 324 326 328 328 328 329 330 329 330 328 327 327 327 327 326 327 327 327 328 330
290 282 291 292 296 297 294 294 286 288 281 281 288 290 291 298 301 304 306 308 317 320 321 323 324 326 328 329 328 329 329 329 328 327 326 327 326 327 327 327 326 329 329 329
290 286 287 292 289 290 290 287 288 289 289 284 283 288 299 304 305 304 307 309 318 319 321 323 324 326 327 328 329 329 328 327 326 325 326 327 327 327 326 326 328 328 327 329
292 287 283 286 294 297 295 291 289 285 285 289 288 289 301 304 305 307 308 309 319 320 322 323 324 326 326 326 328 327 325 325 326 326 327 327 329 327 326 326 327 329 327 328
291 285 280 283 288 294 292 295 293 292 292 288 287 290 302 306 305 307 306 312 319 320 321 323 324 324 325 326 327 325 324 324 325 327 327 329 328 326 325 326 327 328 327 327
295 286 284 279 284 290 287 290 293 291 288 289 291 292 298 304 305 307 307 317 319 320 321 322 322 324 325 326 325 324 323 324 324 326 326 329 328 326 326 325 326 327 327 326
293 284 286 287 289 290 290 289 290 288 290 289 293 295 298 303 306 311 315 317 318 319 320 321 322 323 324 323 322 323 322 324 324 326 328 328 329 327 327 327 326 327 327 326
293 284 287 286 290 291 289 290 291 291 292 293 296 295 307 308 313 315 316 317 318 319 320 321 323 324 324 323 321 321 322 323 324 327 328 326 329 330 326 326 326 325 325 326
289 287 286 283 291 288 283 288 290 291 295 296 293 301 306 306 309 311 316 317 318 319 320 322 323 324 324 321 321 318 322 322 324 326 327 328 329 328 328 328 326 324 323 323
289 288 288 285 288 279 289 297 301 299 302 303 303 306 307 310 311 312 315 315 318 320 321 322 323 323 323 321 320 320 322 321 322 325 327 328 327 326 328 326 325 323 325 322
292 290 287 285 284 289 291 296 296 297 300 306 305 305 308 313 312 310 315 317 317 318 322 323 325 325 322 321 321 321 321 320 320 323 326 327 328 326 326 325 324 323 324 321
293 294 287 286 282 282 290 297 302 303 293 307 308 307 308 310 301 305 313 316 317 319 322 324 326 325 321 321 321 320 319 318 318 321 323 327 327 327 327 325 324 323 322 322
288 288 285 285 285 287 294 298 305 292 294 304 308 308 306 305 306 310 314 315 317 319 322 326 326 324 321 321 321 318 318 317 319 322 323 325 326 325 327 326 325 323 322 323
286 286 286 287 285 283 298 298 294 298 303 306 306 306 307 309 310 312 315 316 318 319 321 324 325 324 323 322 321 318 317 319 319 322 323 326 324 326 325 326 324 324 322 323
285 290 287 286 286 298 298 298 303 304 302 304 304 306 308 308 309 312 314 316 317 320 321 325 325 325 323 322 321 318 318 320 318 320 324 325 325 325 323 325 325 324 320 320
293 296 292 292 294 297 299 301 302 302 302 306 305 306 307 306 309 311 313 315 317 319 323 325 325 324 322 322 322 321 322 320 319 320 325 326 325 323 322 325 327 325 321 320
293 294 289 293 295 297 298 299 301 301 304 305 306 305 306 306 307 311 313 314 316 319 322 324 326 325 323 323 323 324 323 320 319 322 324 326 326 325 322 320 318 325 325 322
295 291 289 288 294 295 296 300 302 302 302 304 303 304 306 306 307 311 312 314 315 317 319 321 322 327 326 324 323 324 323 320 321 321 323 325 326 326 324 315 311 298 298 303
Wind_Speed
9 9 22 33 21 15 19 23 18 17 18 16 19 25 26 18 11 16 17 13 10 9 10 8 9 2 8 6 9 9 12 8 9 7 6 4 4 3 3 3 6 7 6 6
9 25 25 15 19 21 23 24 21 14 12 17 21 20 25 21 18 23 22 11 12 8 7 7 5 8 6 8 8 9 9 9 7 6 4 4 4 3 4 4 5 7 7 7
16 15 16 20 20 21 27 26 18 21 12 19 11 13 19 16 15 12 12 11 7 10 10 10 8 9 8 9 9 9 8 9 8 8 5 3 4 3 3 2 3 5 7 6
17 17 21 20 24 19 25 12 21 18 13 21 5 15 19 16 20 16 12 8 9 9 9 9 10 10 9 8 8 9 9 9 7 8 5 6 5 4 3 3 3 4 6 6
21 14 8 17 20 20 22 16 18 12 17 16 16 6 26 8 12 9 10 17 14 13 11 10 13 12 9 9 9 9 9 8 6 8 8 5 4 2 2 3 7 4 3 5
18 12 17 18 17 19 17 17 18 15 11 14 17 12 33 18 20 8 9 12 13 11 9 12 15 14 12 11 10 9 9 6 7 7 7 7 5 5 5 4 4 4 2 3
13 16 17 18 20 18 13 13 7 9 12 19 12 11 23 5 14 20 15 16 11 10 11 18 18 15 14 13 11 9 9 7 7 8 7 7 7 6 5 3 3 3 1 2
7 7 8 9 19 12 13 13 11 16 12 15 7 18 13 13 18 18 20 15 10 7 15 17 18 16 15 14 12 10 9 7 7 7 7 6 6 3 1 3 2 3 2 2
6 7 14 21 18 16 21 20 13 17 15 7 7 20 23 26 26 18 17 6 8 12 17 17 15 14 16 14 11 10 10 8 7 7 7 6 5 5 4 4 3 2 2 2
1 9 8 18 13 15 14 11 8 10 18 17 8 15 13 16 16 19 9 11 11 16 17 15 13 14 13 13 10 10 9 9 7 8 7 5 6 6 5 5 4 3 3 3
5 6 9 10 3 8 8 17 13 7 11 11 12 13 14 11 8 9 11 10 18 17 17 17 14 14 14 12 12 9 9 8 8 8 6 6 5 5 4 3 4 4 3 6
5 3 7 12 15 18 18 20 16 10 9 10 6 12 7 11 5 9 11 11 19 19 18 16 17 16 14 11 11 9 8 8 8 7 6 7 6 5 5 4 3 4 3 4
3 3 6 8 6 8 6 9 12 8 15 18 15 15 14 10 4 7 8 13 19 19 19 17 16 15 14 11 11 9 8 8 8 7 7 6 6 6 4 5 4 4 4 4
7 3 8 8 14 9 11 20 15 9 11 12 19 11 11 13 9 8 2 19 22 21 20 18 15 15 13 13 11 9 8 8 7 8 8 8 6 6 4 4 4 4 4 5
1 5 10 15 20 13 14 18 20 15 17 11 16 17 15 9 5 3 17 19 21 20 20 19 16 15 12 12 11 10 8 9 8 7 9 9 6 7 5 4 4 4 6 5
2 5 6 15 19 15 12 15 19 19 23 19 23 7 8 7 5 11 14 17 19 20 20 18 17 16 15 14 13 10 9 9 9 8 10 7 8 7 6 6 5 5 6 6
9 4 4 5 7 10 6 13 16 16 19 19 19 6 6 7 9 5 10 13 17 19 20 18 18 16 15 14 13 9 10 8 10 8 8 8 9 7 6 6 6 6 6 6
11 12 4 6 6 5 1 14 16 15 16 17 16 19 12 6 14 17 14 8 13 15 18 16 15 13 14 12 12 9 11 9 9 10 11 9 7 7 7 6 7 5 5 6
14 6 4 4 4 3 8 4 11 11 10 22 7 12 4 12 17 14 9 6 6 7 17 14 15 14 13 14 14 12 11 9 7 10 9 11 9 10 9 6 7 5 5 5
12 8 3 3 4 3 2 18 20 16 7 16 15 16 12 3 9 3 6 5 6 9 8 16 16 17 15 13 13 13 11 9 8 7 10 13 11 11 9 8 7 4 5 5
1 3 9 6 3 5 15 25 18 6 3 17 10 10 8 6 3 3 5 6 6 5 7 15 18 17 16 15 13 12 10 9 8 7 8 11 12 12 10 7 5 6 6 6
2 4 4 4 1 3 13 17 7 8 14 7 14 14 8 7 7 8 8 7 8 9 8 5 15 14 14 16 14 10 11 9 8 8 8 12 11 10 7 11 5 7 6 7
2 2 3 1 3 4 11 14 12 10 14 14 15 15 15 13 9 9 8 9 8 8 5 5 9 15 13 15 14 11 11 9 7 9 13 12 11 10 8 11 8 7 5 5
9 6 3 1 3 4 2 7 14 17 18 12 12 12 14 14 13 11 12 11 11 6 2 1 3 11 14 14 13 11 11 9 8 11 13 10 12 9 6 7 7 7 6 5
3 5 10 4 6 11 8 14 10 15 13 16 12 9 13 13 14 8 11 12 12 12 10 2 8 7 13 14 13 10 13 9 9 12 12 11 10 11 7 5 4 8 8 10
4 2 3 4 9 7 14 16 16 11 11 15 14 15 14 8 12 7 10 11 11 14 13 10 2 16 13 15 15 11 13 10 12 12 10 10 10 8 8 6 4 9 7 10
Wind_Direction
236 215 221 218 218 229 246 240 252 244 243 262 256 258 268 268 262 268 262 259 222 220 238 249 246 185 115 110 121 134 137 144 134 139 128 120 140 142 125 151 184 163 164 153
235 228 228 237 226 231 245 261 262 263 246 246 247 257 255 252 252 249 255 247 237 235 211 211 189 145 139 131 117 114 120 132 117 121 120 129 141 160 171 189 194 168 150 155
229 245 223 231 232 228 232 238 247 256 286 279 288 290 285 283 273 261 252 246 220 219 221 234 151 154 141 136 134 129 125 126 123 133 115 95 83 68 80 135 140 168 151 157
260 254 239 245 229 231 243 233 238 253 240 255 205 272 264 265 264 266 262 263 251 239 223 223 147 155 146 140 125 115 124 125 127 140 116 129 135 137 186 176 167 146 155 177
240 274 261 247 249 232 253 225 258 256 246 262 253 270 265 214 253 248 256 253 255 256 230 230 159 142 133 126 120 118 119 121 123 134 135 135 114 113 137 113 119 122 148 166
250 243 257 263 272 251 263 242 244 258 261 263 247 221 267 240 250 250 242 249 241 236 224 127 126 126 126 117 111 121 125 128 128 109 138 124 143 94 97 108 116 155 183 218
248 246 251 252 269 275 260 232 248 237 228 238 219 243 235 251 235 238 241 248 250 239 137 136 137 136 134 128 127 129 121 126 123 104 113 102 111 105 119 113 127 134 172 220
256 264 262 254 230 253 254 233 219 214 216 246 236 241 238 240 261 239 246 242 243 231 136 143 139 139 134 133 136 130 124 128 129 125 121 118 122 126 114 135 122 144 164 196
10 282 312 302 298 228 251 249 246 251 280 224 234 240 263 258 258 256 244 222 118 106 134 134 133 135 133 138 137 135 130 138 145 140 130 136 140 120 130 120 113 129 156 178
86 285 277 287 285 278 233 259 249 223 233 254 242 250 256 263 256 235 215 155 131 132 129 127 135 133 134 140 133 133 137 151 149 134 140 165 157 154 139 144 154 155 189 155
210 195 275 300 255 270 268 238 240 279 218 231 256 258 262 273 201 171 182 159 148 146 141 140 136 134 139 133 138 139 142 144 133 141 167 145 151 135 130 134 148 143 123 141
336 310 281 262 281 279 285 265 231 226 251 232 240 247 249 268 173 151 188 147 148 144 141 140 137 138 139 133 140 140 143 136 145 154 156 146 133 133 136 130 134 142 141 159
347 273 302 310 235 251 284 327 252 247 237 218 239 245 265 310 260 216 179 146 142 139 137 137 138 141 143 139 144 140 144 145 156 152 133 129 135 136 128 153 145 135 126 161
298 249 254 275 296 326 294 310 321 348 249 233 225 251 256 242 233 228 206 145 143 144 143 141 142 145 144 143 146 144 148 154 151 148 135 148 133 138 145 147 138 142 136 132
192 246 254 271 277 272 270 285 299 307 283 275 234 217 230 281 237 154 142 140 137 142 143 146 144 148 144 148 147 154 150 160 143 142 144 135 149 143 150 141 119 109 111 108
172 262 292 277 263 252 232 266 283 284 281 281 257 234 237 22 48 99 120 133 142 145 145 149 144 153 151 154 154 157 151 160 131 144 148 151 140 147 155 145 128 114 110 105
259 261 294 294 135 119 301 258 262 271 265 263 265 164 314 113 29 80 141 140 151 150 151 152 152 156 153 152 152 155 150 149 129 149 148 155 140 165 153 139 123 120 121 121
246 249 261 267 184 217 7 333 328 303 274 300 270 150 201 94 75 51 21 53 148 147 151 150 151 148 149 146 149 140 143 146 138 172 162 160 165 126 136 129 130 121 118 126
218 210 256 260 241 328 328 45 346 339 4 356 82 99 47 148 68 35 0 32 17 144 155 154 149 147 145 145 150 139 145 147 165 166 166 160 158 139 133 139 137 134 121 109
229 153 197 312 314 180 63 322 328 313 50 351 12 55 7 196 64 309 321 351 11 39 164 147 147 145 145 151 148 142 150 152 177 176 156 170 148 144 143 145 143 134 123 118
317 140 237 260 281 332 343 330 311 106 340 323 23 30 24 38 142 262 350 16 34 39 42 152 149 152 153 151 148 147 152 162 185 161 157 148 134 142 144 138 129 132 133 135
43 277 342 318 91 120 346 337 43 317 308 283 36 5 12 6 7 12 4 9 30 21 21 136 145 149 152 152 151 147 160 174 171 151 129 126 134 139 131 132 117 131 130 131
15 338 305 65 290 351 23 359 328 303 319 16 22 3 4 356 356 2 358 4 35 30 350 50 160 147 154 157 158 149 177 165 159 140 136 137 141 142 141 130 131 131 129 135
335 5 9 166 355 133 118 357 348 343 345 358 5 1 355 352 348 0 352 4 13 11 312 286 149 160 159 160 161 158 167 161 145 143 147 146 142 147 139 139 146 146 148 152
347 335 323 301 11 336 5 354 329 317 339 3 349 355 338 348 342 351 354 357 0 352 349 14 172 183 174 162 161 157 167 153 143 148 147 146 146 152 153 143 148 167 177 176
2 13 329 301 317 317 318 325 317 342 349 353 349 340 331 338 329 342 357 350 352 340 332 314 327 170 180 169 166 162 168 148 149 151 156 150 158 158 163 146 101 43 28 199